Time,TemperatureF,DewpointF,PressureIn,WindDirection,WindDirectionDegrees,WindSpeedMPH,WindSpeedGustMPH,Humidity,HourlyPrecipIn,Conditions,Clouds,dailyrainin,SoftwareType,DateUTC
2013-03-16 18:18:00,77.8,33.6,28.59,South,180,2.7,5.4,20,0.00,,,0.00,WSDL version 420,2013-03-16 22:18:00,
2013-03-16 18:24:00,77.2,33.1,28.59,SSW,203,3.7,8.1,20,0.00,,,0.00,WSDL version 420,2013-03-16 22:24:00,
2013-03-16 18:26:00,77.1,33.0,28.59,South,188,2.5,8.1,20,0.00,,,0.00,WSDL version 420,2013-03-16 22:26:00,
2013-03-16 18:40:00,76.3,33.5,28.59,North,0,0.0,7.8,21,0.00,,,0.00,WSDL version 420,2013-03-16 22:40:00,
2013-03-16 18:42:00,76.0,33.3,28.59,SW,230,3.4,7.8,21,0.00,,,0.00,WSDL version 420,2013-03-16 22:42:00,
2013-03-16 18:48:00,75.1,32.6,28.59,SSW,203,3.9,6.0,21,0.00,,,0.00,WSDL version 420,2013-03-16 22:48:00,
2013-03-16 18:52:00,74.7,32.2,28.59,SW,225,2.2,6.0,21,0.00,,,0.00,WSDL version 420,2013-03-16 22:52:00,
2013-03-16 18:54:00,74.7,32.2,28.59,SSW,207,2.4,6.0,21,0.00,,,0.00,WSDL version 420,2013-03-16 22:54:00,
2013-03-16 18:56:00,74.6,32.1,28.59,SSW,195,3.6,6.5,21,0.00,,,0.00,WSDL version 420,2013-03-16 22:56:00,
2013-03-16 19:00:00,74.5,32.0,28.59,SW,234,3.0,6.5,21,0.00,,,0.00,WSDL version 420,2013-03-16 23:00:00,
2013-03-16 19:02:00,74.5,32.0,28.59,NW,315,3.1,6.5,21,0.00,,,0.00,WSDL version 420,2013-03-16 23:02:00,
2013-03-16 19:06:00,74.3,31.8,28.59,SSW,195,4.3,10.3,21,0.00,,,0.00,WSDL version 420,2013-03-16 23:06:00,
2013-03-16 19:10:00,74.0,31.7,28.59,SW,233,3.5,10.3,21,0.00,,,0.00,WSDL version 420,2013-03-16 23:10:00,
2013-03-16 19:12:00,73.9,31.6,28.59,SSW,203,2.0,10.3,21,0.00,,,0.00,WSDL version 420,2013-03-16 23:12:00,
2013-03-16 19:16:00,73.6,31.3,28.61,SW,214,2.3,7.8,21,0.00,,,0.00,WSDL version 420,2013-03-16 23:16:00,
2013-03-16 19:18:00,73.5,31.2,28.61,SSW,203,2.2,7.8,21,0.00,,,0.00,WSDL version 420,2013-03-16 23:18:00,
2013-03-16 19:20:00,73.4,31.5,28.61,SW,236,2.0,6.3,22,0.00,,,0.00,WSDL version 420,2013-03-16 23:20:00,
2013-03-16 19:28:00,72.9,31.9,28.59,SSW,208,3.1,6.3,22,0.00,,,0.00,WSDL version 420,2013-03-16 23:28:00,
2013-03-16 19:30:00,72.7,31.7,28.59,South,191,2.8,5.8,22,0.00,,,0.00,WSDL version 420,2013-03-16 23:30:00,
2013-03-16 19:36:00,72.4,31.4,28.59,South,191,2.7,4.0,22,0.00,,,0.00,WSDL version 420,2013-03-16 23:36:00,
2013-03-16 19:38:00,72.2,31.3,28.59,SSW,198,2.3,3.6,22,0.00,,,0.00,WSDL version 420,2013-03-16 23:38:00,
2013-03-16 19:42:00,72.1,31.2,28.59,South,176,3.6,5.8,22,0.00,,,0.00,WSDL version 420,2013-03-16 23:42:00,
2013-03-16 19:44:00,71.9,31.0,28.61,SSW,203,2.9,6.3,22,0.00,,,0.00,WSDL version 420,2013-03-16 23:44:00,
2013-03-16 19:48:00,71.6,30.8,28.61,SSW,208,1.8,6.3,22,0.00,,,0.00,WSDL version 420,2013-03-16 23:48:00,
2013-03-16 19:54:00,71.4,31.7,28.61,SW,221,1.8,3.6,23,0.00,,,0.00,WSDL version 420,2013-03-16 23:54:00,
2013-03-16 19:58:00,71.3,31.6,28.61,SW,225,2.0,6.3,23,0.00,,,0.00,WSDL version 420,2013-03-16 23:58:00,
2013-03-16 20:04:00,70.8,31.2,28.61,SSW,197,1.8,6.3,23,0.00,,,0.00,WSDL version 420,2013-03-17 00:04:00,
2013-03-16 20:08:00,70.6,31.0,28.61,SW,216,2.6,4.3,23,0.00,,,0.00,WSDL version 420,2013-03-17 00:08:00,
2013-03-16 20:14:00,70.3,30.8,28.61,SSW,195,2.8,5.6,23,0.00,,,0.00,WSDL version 420,2013-03-17 00:14:00,
2013-03-16 20:18:00,70.2,30.7,28.61,SSW,210,3.4,5.6,23,0.00,,,0.00,WSDL version 420,2013-03-17 00:18:00,
2013-03-16 20:22:00,70.1,30.6,28.61,SSW,203,2.6,5.6,23,0.00,,,0.00,WSDL version 420,2013-03-17 00:22:00,
2013-03-16 20:24:00,69.9,30.4,28.61,SSE,158,2.0,4.9,23,0.00,,,0.00,WSDL version 420,2013-03-17 00:24:00,
2013-03-16 20:28:00,69.8,30.4,28.61,SSW,203,0.6,3.6,23,0.00,,,0.00,WSDL version 420,2013-03-17 00:28:00,
2013-03-16 20:32:00,69.8,30.4,28.61,SSW,203,2.2,3.6,23,0.00,,,0.00,WSDL version 420,2013-03-17 00:32:00,
2013-03-16 20:34:00,69.8,30.3,28.61,SW,230,2.7,3.6,23,0.00,,,0.00,WSDL version 420,2013-03-17 00:34:00,
2013-03-16 20:40:00,69.6,30.2,28.61,South,186,1.7,4.0,23,0.00,,,0.00,WSDL version 420,2013-03-17 00:40:00,
2013-03-16 20:42:00,69.5,30.1,28.61,SSW,203,3.1,4.0,23,0.00,,,0.00,WSDL version 420,2013-03-17 00:42:00,
2013-03-16 20:48:00,69.1,29.8,28.64,SW,214,2.0,2.9,23,0.00,,,0.00,WSDL version 420,2013-03-17 00:48:00,
2013-03-16 20:54:00,68.8,29.5,28.64,SSW,197,1.5,2.9,23,0.00,,,0.00,WSDL version 420,2013-03-17 00:54:00,
2013-03-16 20:58:00,68.7,29.4,28.64,WSW,248,1.6,3.4,23,0.00,,,0.00,WSDL version 420,2013-03-17 00:58:00,
2013-03-16 21:04:00,68.4,29.2,28.64,South,186,1.7,4.0,23,0.00,,,0.00,WSDL version 420,2013-03-17 01:04:00,
2013-03-16 21:10:00,68.1,28.9,28.64,SSE,163,1.3,4.0,23,0.00,,,0.00,WSDL version 420,2013-03-17 01:10:00,
2013-03-16 21:14:00,68.0,29.5,28.64,SSW,196,2.3,5.6,24,0.00,,,0.00,WSDL version 420,2013-03-17 01:14:00,
2013-03-16 21:16:00,68.0,29.9,28.64,South,180,2.2,5.6,24,0.00,,,0.00,WSDL version 420,2013-03-17 01:16:00,
2013-03-16 21:20:00,67.8,29.7,28.64,South,180,0.9,5.6,24,0.00,,,0.00,WSDL version 420,2013-03-17 01:20:00,
2013-03-16 21:26:00,67.8,29.7,28.64,SSW,195,2.8,6.3,24,0.00,,,0.00,WSDL version 420,2013-03-17 01:26:00,
2013-03-16 21:32:00,67.6,29.6,28.67,SSW,203,2.5,6.3,24,0.00,,,0.00,WSDL version 420,2013-03-17 01:32:00,
2013-03-16 21:34:00,67.6,29.6,28.67,WSW,255,2.2,6.3,24,0.00,,,0.00,WSDL version 420,2013-03-17 01:34:00,
2013-03-16 21:40:00,67.5,29.5,28.67,SW,219,0.4,2.7,24,0.00,,,0.00,WSDL version 420,2013-03-17 01:40:00,
2013-03-16 21:42:00,67.5,29.4,28.67,SW,218,1.6,2.0,24,0.00,,,0.00,WSDL version 420,2013-03-17 01:42:00,
2013-03-16 21:46:00,67.4,29.4,28.67,SSW,203,1.5,2.5,24,0.00,,,0.00,WSDL version 420,2013-03-17 01:46:00,
2013-03-16 21:48:00,67.3,29.3,28.67,West,263,1.4,2.5,24,0.00,,,0.00,WSDL version 420,2013-03-17 01:48:00,
2013-03-16 21:54:00,67.3,29.3,28.67,SW,218,1.5,2.5,24,0.00,,,0.00,WSDL version 420,2013-03-17 01:54:00,
2013-03-16 21:58:00,67.4,29.4,28.67,SSW,203,1.3,3.8,24,0.00,,,0.00,WSDL version 420,2013-03-17 01:58:00,
2013-03-16 22:00:00,67.4,29.4,28.67,SW,214,1.0,4.3,24,0.00,,,0.00,WSDL version 420,2013-03-17 02:00:00,
2013-03-16 22:02:00,67.4,29.3,28.67,SSW,210,1.0,4.3,24,0.00,,,0.00,WSDL version 420,2013-03-17 02:02:00,
2013-03-16 22:06:00,67.2,29.2,28.67,South,191,2.2,4.3,24,0.00,,,0.00,WSDL version 420,2013-03-17 02:06:00,
2013-03-16 22:10:00,67.1,29.1,28.67,SSW,203,2.2,3.8,24,0.00,,,0.00,WSDL version 420,2013-03-17 02:10:00,
2013-03-16 22:12:00,67.1,29.1,28.67,SW,225,2.7,3.8,24,0.00,,,0.00,WSDL version 420,2013-03-17 02:12:00,
2013-03-16 22:14:00,67.0,29.1,28.67,SW,221,1.3,3.8,24,0.00,,,0.00,WSDL version 420,2013-03-17 02:14:00,
2013-03-16 22:16:00,67.0,29.0,28.67,SSW,203,1.0,3.8,24,0.00,,,0.00,WSDL version 420,2013-03-17 02:16:00,
2013-03-16 22:22:00,66.7,28.8,28.67,South,191,1.6,2.7,24,0.00,,,0.00,WSDL version 420,2013-03-17 02:22:00,
2013-03-16 22:26:00,66.4,28.6,28.67,SSW,203,1.6,3.1,24,0.00,,,0.00,WSDL version 420,2013-03-17 02:26:00,
2013-03-16 22:32:00,66.4,29.5,28.67,SSW,203,2.1,3.6,25,0.00,,,0.00,WSDL version 420,2013-03-17 02:32:00,
2013-03-16 22:34:00,66.4,29.6,28.67,SW,236,3.1,4.9,25,0.00,,,0.00,WSDL version 420,2013-03-17 02:34:00,
2013-03-16 22:40:00,66.5,29.7,28.67,SW,236,2.0,4.9,25,0.00,,,0.00,WSDL version 420,2013-03-17 02:40:00,
2013-03-16 22:42:00,66.5,29.7,28.67,SSW,194,2.3,4.9,25,0.00,,,0.00,WSDL version 420,2013-03-17 02:42:00,
2013-03-16 22:46:00,66.5,29.6,28.70,SW,219,2.7,5.4,25,0.00,,,0.00,WSDL version 420,2013-03-17 02:46:00,
2013-03-16 22:48:00,66.5,29.6,28.70,SW,225,2.2,5.4,25,0.00,,,0.00,WSDL version 420,2013-03-17 02:48:00,
2013-03-16 22:52:00,66.4,29.6,28.70,SSW,208,3.2,5.4,25,0.00,,,0.00,WSDL version 420,2013-03-17 02:52:00,
2013-03-16 22:58:00,66.3,29.4,28.70,SSW,197,3.2,4.3,25,0.00,,,0.00,WSDL version 420,2013-03-17 02:58:00,
2013-03-16 23:00:00,66.2,29.4,28.70,South,180,3.8,4.3,25,0.00,,,0.00,WSDL version 420,2013-03-17 03:00:00,
2013-03-16 23:04:00,66.2,29.4,28.70,SW,214,3.4,4.3,25,0.00,,,0.00,WSDL version 420,2013-03-17 03:04:00,
2013-03-16 23:08:00,66.2,29.3,28.70,SSW,203,2.7,5.6,25,0.00,,,0.00,WSDL version 420,2013-03-17 03:08:00,
2013-03-16 23:10:00,66.1,29.3,28.70,WSW,248,2.7,5.6,25,0.00,,,0.00,WSDL version 420,2013-03-17 03:10:00,
2013-03-16 23:16:00,66.0,29.4,28.73,SW,231,1.9,5.6,25,0.00,,,0.00,WSDL version 420,2013-03-17 03:16:00,
2013-03-16 23:18:00,65.9,29.6,28.73,SW,218,1.3,3.4,26,0.00,,,0.00,WSDL version 420,2013-03-17 03:18:00,
2013-03-16 23:22:00,65.8,29.8,28.73,SW,214,1.6,3.4,26,0.00,,,0.00,WSDL version 420,2013-03-17 03:22:00,
2013-03-16 23:24:00,65.8,29.8,28.73,SSW,203,2.0,2.9,26,0.00,,,0.00,WSDL version 420,2013-03-17 03:24:00,
2013-03-16 23:28:00,65.8,30.0,28.73,WSW,243,2.5,3.1,26,0.00,,,0.00,WSDL version 420,2013-03-17 03:28:00,
2013-03-16 23:32:00,65.8,30.0,28.73,SSW,208,1.1,3.1,26,0.00,,,0.00,WSDL version 420,2013-03-17 03:32:00,
2013-03-16 23:34:00,65.7,29.9,28.73,SW,225,1.3,3.1,26,0.00,,,0.00,WSDL version 420,2013-03-17 03:34:00,
2013-03-16 23:36:00,65.7,29.9,28.73,SW,225,1.8,3.4,26,0.00,,,0.00,WSDL version 420,2013-03-17 03:36:00,
2013-03-16 23:40:00,65.7,29.9,28.73,SW,236,1.5,3.4,26,0.00,,,0.00,WSDL version 420,2013-03-17 03:40:00,
2013-03-16 23:46:00,65.8,30.0,28.73,SSW,203,2.4,3.4,26,0.00,,,0.00,WSDL version 420,2013-03-17 03:46:00,
2013-03-16 23:48:00,65.8,30.0,28.73,SSW,208,2.2,3.4,26,0.00,,,0.00,WSDL version 420,2013-03-17 03:48:00,
2013-03-16 23:52:00,65.7,29.9,28.73,WSW,248,2.3,3.4,26,0.00,,,0.00,WSDL version 420,2013-03-17 03:52:00,
2013-03-16 23:54:00,65.7,29.9,28.73,SW,236,2.1,3.4,26,0.00,,,0.00,WSDL version 420,2013-03-17 03:54:00,
2013-03-16 23:56:00,65.8,30.0,28.73,SW,236,2.4,3.6,26,0.00,,,0.00,WSDL version 420,2013-03-17 03:56:00,